Wind_Speed
6 7 8 8 8 8 9 9 9 9 10 10 10 10 10 10 10 10 9 9 10 10 10 9 10 11 12 13 14 13 14 14 14 15 16 16 16 16 16 17 17 16 16
6 7 7 7 7 7 8 9 9 9 10 9 9 10 10 10 10 10 10 10 10 10 10 10 11 12 13 13 14 14 14 15 15 15 15 15 15 16 17 16 16 17 17
6 5 5 5 5 6 7 8 8 8 8 9 9 9 9 9 10 9 9 10 10 10 11 11 11 12 12 13 14 14 15 16 16 16 15 15 15 15 15 16 17 17 17
4 5 5 6 6 5 5 5 6 6 7 8 8 8 8 8 8 9 9 10 10 11 11 11 11 12 12 13 13 13 14 15 15 14 15 16 16 15 15 16 16 17 17
3 4 5 5 5 5 5 5 6 6 7 8 8 8 8 8 8 9 9 9 10 10 11 11 11 11 12 12 12 13 13 13 13 13 14 14 15 15 16 16 17 17 17
3 3 4 4 5 5 6 5 6 6 6 7 8 8 8 8 8 9 9 9 9 9 10 11 11 11 11 12 12 12 12 12 12 12 13 14 13 13 14 15 17 17 17
4 4 4 4 5 5 6 6 6 6 6 7 7 8 8 8 9 9 9 9 9 9 9 9 9 10 10 11 11 12 12 12 13 13 13 13 13 13 14 14 15 15 15
5 5 5 5 5 6 6 7 6 6 7 7 7 7 8 8 8 8 9 9 9 9 9 10 10 10 11 11 11 11 12 13 13 13 13 14 13 13 13 13 13 13 13
6 6 6 6 5 6 6 7 7 7 7 7 7 7 7 8 8 9 9 9 10 10 10 11 11 11 11 12 12 11 12 12 12 13 13 14 14 14 14 13 12 11 12
6 6 6 6 6 6 6 7 7 7 8 8 9 9 9 10 10 10 10 10 11 11 11 11 11 12 13 13 13 13 13 13 13 14 15 15 15 15 14 13 12 12 12
7 7 7 7 7 8 8 8 8 8 9 9 10 10 10 10 10 10 10 11 12 12 12 12 12 13 13 13 13 13 14 15 15 15 15 15 15 15 14 13 12 12 12
8 8 8 8 9 9 9 10 10 9 10 10 11 11 11 11 11 11 11 12 12 12 13 13 13 13 13 14 14 14 15 16 15 15 15 14 13 13 13 12 12 13 13
9 9 9 9 10 10 10 11 11 11 11 11 11 12 12 12 12 13 13 14 14 13 14 14 14 14 14 14 15 15 15 16 15 15 14 14 13 12 12 12 13 13 14
11 11 11 11 11 11 11 12 12 12 12 12 13 13 13 13 13 14 14 14 14 14 14 14 15 15 15 15 15 15 15 15 15 15 15 14 14 14 14 14 14 14 15
12 13 13 13 13 13 13 13 13 13 13 14 14 14 15 15 15 15 15 15 15 15 15 15 15 16 16 16 17 17 17 16 15 15 15 15 15 15 15 15 16 16 16
13 14 14 14 14 14 14 14 14 15 14 15 15 16 16 16 17 17 17 16 17 17 16 16 17 17 17 17 17 17 17 17 16 16 16 17 17 16 16 16 17 17 18
15 15 15 15 15 14 14 15 15 15 15 16 16 17 17 18 18 18 18 18 18 18 17 17 18 18 19 19 19 18 18 18 17 17 17 18 18 18 17 18 19 19 19
16 15 15 15 15 15 16 16 16 17 17 17 17 17 18 18 18 18 19 19 19 19 19 19 19 19 19 19 19 19 20 19 19 19 19 19 19 20 20 20 20 20 20
15 15 15 15 16 16 17 17 17 17 18 18 18 18 18 18 18 18 19 19 20 20 20 21 20 20 20 20 20 20 20 20 21 21 20 20 21 21 21 21 21 22 22
16 16 15 15 16 17 17 18 18 19 19 19 19 19 19 19 19 19 19 20 21 21 21 21 21 21 21 21 21 21 22 22 22 22 22 23 23 22 22 23 23 23 23
17 17 17 16 16 17 17 18 19 19 19 20 20 19 19 19 20 21 21 21 21 22 22 22 22 22 22 22 22 23 23 24 24 24 24 25 24 24 24 24 24 24 24
18 18 18 17 17 17 18 19 19 19 19 19 19 20 20 21 21 22 22 23 22 23 23 23 23 23 23 23 24 24 24 25 25 26 26 26 26 25 25 25 25 25 25
18 18 18 18 19 19 18 18 19 19 19 19 20 20 21 22 22 23 23 23 24 24 24 24 24 24 25 25 25 26 26 26 25 26 26 25 25 25 25 25 25 26 26
19 19 19 18 19 19 19 19 19 20 20 20 21 21 22 22 23 23 24 24 24 25 25 25 26 26 26 26 27 27 27 26 26 25 25 25 25 25 25 25 25 26 26
19 20 20 20 20 20 21 21 21 21 21 21 21 22 23 23 24 24 25 26 26 26 26 27 27 27 27 27 27 27 27 26 26 26 26 26 26 26 26 26 26 26 27
20 20 20 20 20 21 21 21 22 21 21 22 23 23 24 24 25 26 26 27 27 27 27 27 27 27 27 28 28 28 27 27 27 26 27 27 27 27 27 27 28 28 29
Wind_Direction
251 253 248 250 255 260 260 262 265 267 262 257 259 262 262 261 259 258 259 261 263 264 265 266 270 272 273 275 275 275 276 275 274 273 271 273 271 268 265 265 265 263 262
257 257 252 254 258 260 263 263 263 267 260 256 263 265 261 256 256 258 261 264 268 270 266 268 273 275 277 277 278 278 277 275 273 272 273 273 271 270 267 267 267 264 263
259 260 256 253 259 262 260 260 263 261 257 256 261 264 260 255 257 260 265 267 269 269 269 273 276 279 281 282 282 281 280 278 277 274 273 272 270 269 267 267 268 267 265
262 262 259 261 267 272 266 258 268 268 264 260 262 260 260 260 261 263 266 267 267 268 271 272 276 280 284 286 286 286 286 281 280 279 277 274 272 271 269 269 269 269 268
266 266 266 271 273 277 279 275 274 274 270 263 259 258 262 265 266 267 268 269 269 272 273 274 277 281 284 286 288 290 289 288 286 284 280 279 276 274 273 272 271 270 268
265 265 277 279 273 276 279 276 275 274 271 262 259 262 266 267 271 272 273 274 277 277 276 277 278 281 285 287 287 291 290 293 291 289 286 286 283 280 280 280 277 274 271
273 272 277 281 276 275 278 276 273 276 271 267 264 265 267 269 271 276 277 278 280 280 281 282 282 285 288 291 291 291 291 292 292 292 291 290 288 287 286 284 279 273 270
275 278 282 282 274 273 273 274 272 275 278 275 269 269 275 273 272 276 279 279 281 282 282 282 283 286 287 289 293 294 294 292 291 290 287 288 290 290 289 288 283 275 271
274 277 281 279 273 270 270 272 271 272 277 280 276 277 279 277 278 281 281 280 280 283 284 285 287 287 285 284 286 289 291 289 290 291 290 290 289 288 287 286 285 278 273
278 278 279 277 275 272 273 277 278 275 275 279 281 281 281 280 279 280 279 282 282 281 281 283 284 284 283 280 280 284 283 282 286 289 290 290 290 289 286 284 282 280 274
280 277 276 276 277 278 277 278 277 274 274 277 278 280 282 281 278 277 279 282 285 284 282 282 284 286 286 281 278 279 282 283 286 289 290 291 290 286 284 284 282 280 276
282 278 276 278 278 277 278 279 279 277 279 279 278 278 279 282 281 280 281 282 284 285 284 284 283 283 283 281 281 282 285 285 284 289 291 294 290 285 281 281 281 280 279
276 278 278 280 280 278 277 277 279 278 278 279 281 281 281 282 282 281 282 282 282 284 284 284 283 283 284 285 284 285 286 286 284 288 290 291 288 282 279 278 279 280 281
272 274 279 281 281 278 277 277 278 278 277 278 280 281 283 284 284 282 281 282 281 280 282 283 283 283 284 285 284 284 284 284 284 286 288 290 289 285 283 281 282 281 282
272 274 278 280 281 280 277 277 278 279 278 278 279 280 281 283 283 284 282 282 282 282 283 282 282 282 283 285 286 283 283 280 279 281 284 287 288 287 285 284 284 283 285
273 275 278 281 282 282 278 276 278 280 278 277 276 278 280 281 281 281 280 280 281 282 283 282 280 280 280 283 284 284 282 279 279 281 283 284 285 285 284 283 283 282 282
274 275 277 277 278 277 277 276 278 280 281 279 277 277 278 280 280 280 279 279 280 281 282 282 281 281 280 282 283 283 281 280 281 282 282 282 282 282 282 283 282 281 281
276 274 275 275 276 276 277 277 278 279 280 280 278 278 278 280 279 279 279 277 278 278 280 281 281 283 283 284 284 283 278 278 280 281 281 281 281 282 282 281 281 282 281
279 278 277 277 276 277 278 279 278 279 280 281 280 278 278 279 280 280 280 278 277 278 279 279 280 282 282 282 283 283 280 278 280 280 282 282 282 281 281 280 282 282 282
278 278 281 281 280 281 281 282 282 283 283 282 280 279 279 278 278 278 279 279 278 279 279 279 278 279 280 283 283 282 282 281 281 281 282 282 283 283 281 280 281 282 281
277 278 281 282 284 285 286 286 286 286 286 284 281 279 279 279 278 279 279 281 281 279 279 279 279 279 280 282 283 283 282 282 282 281 281 281 281 282 281 280 280 279 278
276 279 280 280 284 286 286 286 287 287 288 287 285 281 280 280 280 280 279 280 281 280 278 279 279 279 280 282 283 284 285 284 282 282 283 282 282 282 281 280 280 279 277
276 277 278 280 282 285 287 287 288 286 286 287 286 283 281 281 280 281 280 280 280 279 278 278 280 281 281 282 284 284 285 286 285 283 283 283 283 283 282 279 278 278 277
276 277 278 281 282 284 285 287 287 287 286 286 285 285 284 283 281 281 280 280 280 279 279 278 279 280 282 281 283 283 284 284 284 284 283 282 282 283 283 282 280 279 278
277 279 279 281 282 283 284 285 285 286 286 287 287 286 285 285 283 282 281 281 282 281 279 278 278 279 281 282 283 282 283 284 285 284 283 283 283 282 282 282 282 282 281
278 280 281 281 283 283 285 287 287 287 288 287 287 288 287 287 285 283 283 283 283 282 280 279 278 279 281 283 284 284 283 284 285 285 283 283 283 282 281 281 282 283 283
Height
5853 5854 5854 5854 5855 5855 5855 5855 5856 5856 5856 5856 5857 5857 5858 5858 5858 5859 5859 5859 5859 5859 5859 5859 5859 5859 5859 5858 5858 5858 5858 5857 5857 5857 5857 5857 5857 5857 5856 5857 5857 5857 5857
5852 5852 5852 5853 5853 5853 5852 5853 5853 5854 5854 5855 5855 5855 5856 5856 5856 5856 5857 5857 5857 5857 5857 5857 5856 5856 5856 5856 5855 5855 5854 5854 5854 5854 5853 5853 5853 5853 5853 5852 5852 5852 5853
5850 5851 5851 5851 5851 5851 5850 5850 5851 5852 5852 5853 5853 5853 5854 5854 5854 5854 5854 5855 5855 5855 5855 5855 5854 5854 5853 5853 5852 5852 5851 5851 5850 5850 5850 5850 5849 5849 5848 5848 5848 5848 5849
5849 5849 5850 5850 5849 5849 5849 5849 5850 5850 5851 5851 5851 5852 5852 5852 5852 5852 5852 5852 5852 5852 5852 5852 5852 5851 5851 5850 5850 5849 5848 5848 5847 5847 5846 5846 5845 5845 5845 5844 5844 5844 5845
5848 5849 5849 5849 5848 5849 5848 5848 5848 5848 5849 5849 5849 5850 5850 5850 5850 5850 5850 5850 5850 5850 5850 5850 5849 5849 5848 5848 5847 5846 5845 5844 5844 5844 5843 5842 5841 5841 5840 5840 5840 5840 5840
5847 5847 5847 5847 5847 5847 5847 5847 5847 5847 5847 5847 5847 5848 5848 5848 5848 5848 5848 5848 5848 5848 5847 5847 5847 5847 5846 5845 5845 5844 5843 5842 5841 5840 5840 5839 5838 5837 5836 5835 5834 5834 5835
5846 5846 5846 5846 5846 5846 5846 5846 5846 5846 5846 5846 5846 5846 5846 5846 5846 5846 5846 5845 5845 5845 5845 5845 5844 5844 5843 5843 5842 5841 5840 5839 5838 5838 5836 5836 5835 5834 5833 5830 5829 5828 5829
5845 5845 5845 5844 5844 5844 5844 5844 5844 5844 5844 5844 5844 5844 5844 5844 5844 5844 5844 5843 5843 5843 5842 5842 5842 5841 5841 5840 5839 5839 5838 5837 5836 5835 5834 5832 5832 5830 5829 5827 5825 5824 5826
5843 5843 5843 5843 5843 5843 5842 5842 5842 5842 5842 5842 5842 5842 5842 5841 5841 5841 5841 5841 5841 5840 5840 5839 5839 5838 5838 5837 5836 5836 5835 5834 5833 5832 5831 5829 5828 5827 5826 5825 5823 5823 5824
5841 5841 5841 5841 5841 5841 5841 5840 5840 5840 5840 5840 5840 5839 5839 5839 5839 5839 5839 5838 5838 5837 5837 5836 5836 5835 5834 5834 5833 5833 5832 5831 5830 5829 5827 5826 5824 5823 5823 5822 5822 5822 5822
5840 5839 5839 5839 5839 5839 5838 5838 5838 5838 5838 5837 5837 5837 5836 5836 5836 5836 5836 5836 5835 5835 5834 5833 5833 5832 5831 5830 5830 5829 5828 5828 5827 5825 5824 5822 5819 5818 5819 5819 5819 5819 5820
5838 5837 5837 5837 5836 5836 5836 5836 5836 5835 5835 5835 5835 5834 5834 5834 5833 5833 5833 5833 5832 5832 5831 5830 5829 5829 5827 5827 5826 5825 5825 5824 5823 5822 5821 5819 5816 5816 5816 5816 5817 5817 5817
5835 5835 5834 5834 5834 5833 5833 5833 5832 5832 5832 5832 5832 5831 5831 5830 5830 5830 5830 5829 5829 5828 5828 5827 5826 5825 5825 5824 5823 5822 5821 5821 5820 5819 5818 5816 5815 5814 5814 5814 5814 5814 5813
5832 5832 5831 5831 5831 5830 5830 5829 5829 5829 5829 5828 5828 5828 5827 5827 5826 5826 5826 5826 5825 5825 5824 5823 5822 5822 5821 5820 5820 5819 5818 5817 5816 5815 5814 5813 5812 5811 5811 5810 5810 5810 5810
5829 5828 5828 5827 5827 5826 5826 5825 5825 5825 5824 5824 5824 5823 5823 5823 5822 5822 5822 5821 5822 5821 5820 5819 5819 5818 5817 5817 5816 5815 5814 5813 5812 5811 5810 5810 5809 5808 5807 5807 5806 5806 5805
5825 5824 5824 5823 5823 5822 5821 5821 5821 5820 5820 5819 5819 5819 5819 5818 5818 5817 5817 5817 5816 5816 5816 5815 5814 5814 5813 5813 5812 5811 5810 5809 5808 5807 5806 5806 5805 5804 5803 5802 5802 5801 5801
5820 5820 5819 5819 5818 5818 5817 5817 5816 5816 5815 5815 5814 5814 5814 5813 5813 5812 5812 5812 5811 5811 5811 5811 5810 5809 5809 5808 5807 5806 5805 5804 5803 5803 5802 5801 5800 5799 5798 5798 5797 5796 5795
5815 5815 5814 5814 5814 5813 5813 5812 5812 5811 5810 5810 5809 5809 5808 5808 5807 5807 5807 5806 5806 5806 5806 5805 5805 5804 5804 5803 5802 5801 5800 5799 5798 5797 5796 5796 5795 5794 5793 5792 5791 5790 5790
5811 5810 5810 5809 5809 5808 5808 5807 5806 5806 5805 5804 5803 5803 5803 5802 5802 5801 5801 5801 5800 5800 5800 5799 5799 5799 5798 5797 5796 5796 5794 5794 5792 5791 5790 5789 5788 5787 5786 5786 5784 5784 5783
5806 5806 5805 5804 5804 5803 5803 5802 5801 5800 5799 5798 5798 5797 5797 5796 5796 5795 5795 5795 5794 5794 5794 5793 5793 5792 5792 5791 5790 5789 5788 5787 5786 5785 5784 5783 5781 5780 5779 5778 5778 5777 5776
5802 5802 5801 5800 5799 5798 5797 5796 5795 5795 5794 5793 5792 5791 5791 5790 5790 5789 5789 5788 5788 5788 5787 5787 5786 5786 5785 5784 5784 5783 5782 5780 5779 5778 5777 5775 5774 5773 5771 5770 5769 5768 5768
5797 5797 5796 5795 5794 5793 5792 5791 5790 5789 5788 5787 5786 5785 5784 5784 5783 5783 5782 5782 5781 5781 5781 5780 5779 5779 5778 5777 5776 5775 5774 5773 5772 5770 5768 5767 5765 5764 5763 5762 5761 5760 5759
5792 5792 5791 5791 5790 5788 5787 5786 5784 5783 5782 5781 5780 5779 5778 5777 5777 5776 5775 5775 5774 5773 5773 5773 5772 5771 5771 5770 5769 5767 5766 5765 5763 5762 5760 5759 5757 5756 5755 5754 5753 5752 5751
5787 5787 5786 5785 5784 5783 5782 5780 5779 5777 5776 5775 5774 5773 5772 5771 5770 5769 5768 5768 5767 5766 5766 5765 5764 5763 5762 5761 5760 5759 5758 5757 5755 5753 5752 5751 5750 5748 5747 5746 5745 5744 5743
5782 5781 5780 5779 5778 5777 5776 5775 5773 5772 5770 5769 5768 5767 5766 5764 5763 5762 5761 5760 5759 5758 5757 5756 5756 5754 5754 5753 5751 5750 5749 5748 5747 5745 5744 5743 5742 5740 5739 5738 5736 5735 5734
5776 5775 5774 5774 5772 5771 5770 5769 5767 5766 5765 5763 5761 5760 5759 5757 5756 5754 5753 5752 5751 5750 5749 5748 5747 5746 5745 5744 5743 5742 5741 5739 5738 5737 5736 5734 5733 5732 5731 5730 5728 5727 5725